Погода в Высоком

Россия / Калужская область     53°55′01″N   34°56′45″E
темп.,
°C
ветер,
м/с
пор.,
м/с
влажн.,
%
обл.,
%
осадки,
мм/ч
давл.,
гПа
погр.,
м
14 мая, пт
пт1400:00+7ююв239519 0.0 101552
03:00+6юв369592 0.0 1016107
06:00+8вюв3893100 0.0 1015176
09:00+13юв3883100 0.0 1015365
12:00+18юв5867100 0.0 1013998
15:00+17вюв4882100 1.3 1012603
18:00+17вюв4885100 2.9 1009323
21:00+14ююв3993100 8.6 1008205
15 мая, сб
сб1500:00+13ююв389723 0.0 1009148
03:00+11ююв2597100 0.0 1009100
06:00+12ю2597100 0.0 1009136
09:00+17ю357997 0.0 1009419
12:00+20ю576038 0.5 10091526
15:00+19ю576790 1.8 10081270
18:00+17ююз58825 1.4 1009836
21:00+13ююз39955 1.7 1010285
16 мая, вс
вс1600:00+11ю399812 0.0 1011261
03:00+10ю399824 0.0 1011247
06:00+10ююз310965 0.0 1012301
09:00+15ююз59785 0.0 1013702
12:00+19юз585710 0.0 10131613
15:00+21юз57514 0.0 10121896
18:00+20юз35632 0.0 1012779
21:00+14з118588 0.0 101311
17 мая, пн
пн1700:00+13св1186100 0.0 101310
03:00+12в2290100 0.0 101327
06:00+13в249078 0.0 101392
09:00+19в476981 0.0 1012396
12:00+23в576017 0.0 10101127
15:00+25вюв610565 0.0 10081541
18:00+24юв6116361 0.0 10061041
21:00+19юв5147472 0.0 1006588
18 мая, вт
вт1800:00+18юв51378100 0.0 1006434
03:00+15юв3993100 0.0 1005231
06:00+16ююз3796100 0.1 1006416
09:00+17юз3487100 0.8 1007606
12:00+17з2386100 0.4 1008539
15:00+19зюз2373100 0.5 1007775
18:00+18юз248296 0.3 1008214
21:00+14юз249439 0.4 100970